segment_id,date_local,uptime,ped_lft,ped_rgt,ped_total,bike_lft,bike_rgt,bike_total,car_lft,car_rgt,car_total,heavy_lft,heavy_rgt,heavy_total,v85,car_speed0,car_speed10,car_speed20,car_speed30,car_speed40,car_speed50,car_speed60,car_speed70
100032159,2012-07-01 00:00,1.0,,,,53,,53,,,,,,,
100032159,2012-07-01 01:00,1.0,,,,33,,33,,,,,,,
100032159,2012-07-01 02:00,1.0,,,,25,,25,,,,,,,
100032159,2012-07-01 03:00,1.0,,,,2,,2,,,,,,,
100032159,2012-07-01 04:00,1.0,,,,8,,8,,,,,,,
100032159,2012-07-01 05:00,1.0,,,,5,,5,,,,,,,
100032159,2012-07-01 06:00,1.0,,,,5,,5,,,,,,,
100032159,2012-07-01 07:00,1.0,,,,13,,13,,,,,,,
100032159,2012-07-01 08:00,1.0,,,,19,,19,,,,,,,
100032159,2012-07-01 09:00,1.0,,,,40,,40,,,,,,,
100032159,2012-07-01 10:00,1.0,,,,124,,124,,,,,,,
100032159,2012-07-01 11:00,1.0,,,,111,,111,,,,,,,
100032159,2012-07-01 12:00,1.0,,,,140,,140,,,,,,,
100032159,2012-07-01 13:00,1.0,,,,166,,166,,,,,,,
100032159,2012-07-01 14:00,1.0,,,,152,,152,,,,,,,
100032159,2012-07-01 15:00,1.0,,,,180,,180,,,,,,,
100032159,2012-07-01 16:00,1.0,,,,162,,162,,,,,,,
100032159,2012-07-01 17:00,1.0,,,,178,,178,,,,,,,
100032159,2012-07-01 18:00,1.0,,,,191,,191,,,,,,,
100032159,2012-07-01 19:00,1.0,,,,172,,172,,,,,,,
100032159,2012-07-01 20:00,1.0,,,,128,,128,,,,,,,
100032159,2012-07-01 21:00,1.0,,,,60,,60,,,,,,,
100032159,2012-07-01 22:00,1.0,,,,37,,37,,,,,,,
100032159,2012-07-01 23:00,1.0,,,,72,,72,,,,,,,
100032159,2012-07-02 00:00,1.0,,,,20,,20,,,,,,,
100032159,2012-07-02 01:00,1.0,,,,11,,11,,,,,,,
100032159,2012-07-02 02:00,1.0,,,,5,,5,,,,,,,
100032159,2012-07-02 03:00,1.0,,,,4,,4,,,,,,,
100032159,2012-07-02 04:00,1.0,,,,3,,3,,,,,,,
100032159,2012-07-02 05:00,1.0,,,,12,,12,,,,,,,
100032159,2012-07-02 06:00,1.0,,,,21,,21,,,,,,,
100032159,2012-07-02 07:00,1.0,,,,96,,96,,,,,,,
100032159,2012-07-02 08:00,1.0,,,,203,,203,,,,,,,
100032159,2012-07-02 09:00,1.0,,,,167,,167,,,,,,,
100032159,2012-07-02 10:00,1.0,,,,111,,111,,,,,,,
100032159,2012-07-02 11:00,1.0,,,,109,,109,,,,,,,
100032159,2012-07-02 12:00,1.0,,,,87,,87,,,,,,,
100032159,2012-07-02 13:00,1.0,,,,105,,105,,,,,,,
100032159,2012-07-02 14:00,1.0,,,,104,,104,,,,,,,
100032159,2012-07-02 15:00,1.0,,,,136,,136,,,,,,,
100032159,2012-07-02 16:00,1.0,,,,169,,169,,,,,,,
100032159,2012-07-02 17:00,1.0,,,,205,,205,,,,,,,
100032159,2012-07-02 18:00,1.0,,,,248,,248,,,,,,,
100032159,2012-07-02 19:00,1.0,,,,156,,156,,,,,,,
100032159,2012-07-02 20:00,1.0,,,,126,,126,,,,,,,
100032159,2012-07-02 21:00,1.0,,,,48,,48,,,,,,,
100032159,2012-07-02 22:00,1.0,,,,46,,46,,,,,,,
100032159,2012-07-02 23:00,1.0,,,,24,,24,,,,,,,
100032159,2012-07-03 00:00,1.0,,,,17,,17,,,,,,,
100032159,2012-07-03 01:00,1.0,,,,11,,11,,,,,,,
100032159,2012-07-03 02:00,1.0,,,,4,,4,,,,,,,
100032159,2012-07-03 03:00,1.0,,,,3,,3,,,,,,,
100032159,2012-07-03 04:00,1.0,,,,3,,3,,,,,,,
100032159,2012-07-03 05:00,1.0,,,,9,,9,,,,,,,
100032159,2012-07-03 06:00,1.0,,,,14,,14,,,,,,,
100032159,2012-07-03 07:00,1.0,,,,79,,79,,,,,,,
100032159,2012-07-03 08:00,1.0,,,,201,,201,,,,,,,
100032159,2012-07-03 09:00,1.0,,,,193,,193,,,,,,,
100032159,2012-07-03 10:00,1.0,,,,111,,111,,,,,,,
100032159,2012-07-03 11:00,1.0,,,,82,,82,,,,,,,
100032159,2012-07-03 12:00,1.0,,,,85,,85,,,,,,,
100032159,2012-07-03 13:00,1.0,,,,78,,78,,,,,,,
100032159,2012-07-03 14:00,1.0,,,,98,,98,,,,,,,
100032159,2012-07-03 15:00,1.0,,,,135,,135,,,,,,,
100032159,2012-07-03 16:00,1.0,,,,150,,150,,,,,,,
100032159,2012-07-03 17:00,1.0,,,,176,,176,,,,,,,
100032159,2012-07-03 18:00,1.0,,,,241,,241,,,,,,,
100032159,2012-07-03 19:00,1.0,,,,193,,193,,,,,,,
100032159,2012-07-03 20:00,1.0,,,,153,,153,,,,,,,
100032159,2012-07-03 21:00,1.0,,,,114,,114,,,,,,,
100032159,2012-07-03 22:00,1.0,,,,53,,53,,,,,,,
100032159,2012-07-03 23:00,1.0,,,,42,,42,,,,,,,
100032159,2012-07-04 00:00,1.0,,,,29,,29,,,,,,,
100032159,2012-07-04 01:00,1.0,,,,23,,23,,,,,,,
100032159,2012-07-04 02:00,1.0,,,,9,,9,,,,,,,
100032159,2012-07-04 03:00,1.0,,,,6,,6,,,,,,,
100032159,2012-07-04 04:00,1.0,,,,2,,2,,,,,,,
100032159,2012-07-04 05:00,1.0,,,,7,,7,,,,,,,
100032159,2012-07-04 06:00,1.0,,,,32,,32,,,,,,,
100032159,2012-07-04 07:00,1.0,,,,87,,87,,,,,,,
100032159,2012-07-04 08:00,1.0,,,,231,,231,,,,,,,
100032159,2012-07-04 09:00,1.0,,,,172,,172,,,,,,,
100032159,2012-07-04 10:00,1.0,,,,140,,140,,,,,,,
100032159,2012-07-04 11:00,1.0,,,,97,,97,,,,,,,
100032159,2012-07-04 12:00,1.0,,,,97,,97,,,,,,,
100032159,2012-07-04 13:00,1.0,,,,130,,130,,,,,,,
100032159,2012-07-04 14:00,1.0,,,,138,,138,,,,,,,
100032159,2012-07-04 15:00,1.0,,,,167,,167,,,,,,,
100032159,2012-07-04 16:00,1.0,,,,205,,205,,,,,,,
100032159,2012-07-04 17:00,1.0,,,,241,,241,,,,,,,
100032159,2012-07-04 18:00,1.0,,,,305,,305,,,,,,,
100032159,2012-07-04 19:00,1.0,,,,236,,236,,,,,,,
100032159,2012-07-04 20:00,1.0,,,,190,,190,,,,,,,
100032159,2012-07-04 21:00,1.0,,,,143,,143,,,,,,,
100032159,2012-07-04 22:00,1.0,,,,117,,117,,,,,,,
100032159,2012-07-04 23:00,1.0,,,,60,,60,,,,,,,
100032159,2012-07-05 00:00,1.0,,,,34,,34,,,,,,,
100032159,2012-07-05 01:00,1.0,,,,26,,26,,,,,,,
100032159,2012-07-05 02:00,1.0,,,,12,,12,,,,,,,
100032159,2012-07-05 03:00,1.0,,,,7,,7,,,,,,,
100032159,2012-07-05 04:00,1.0,,,,9,,9,,,,,,,
100032159,2012-07-05 05:00,1.0,,,,10,,10,,,,,,,
100032159,2012-07-05 06:00,1.0,,,,26,,26,,,,,,,
100032159,2012-07-05 07:00,1.0,,,,99,,99,,,,,,,
100032159,2012-07-05 08:00,1.0,,,,222,,222,,,,,,,
100032159,2012-07-05 09:00,1.0,,,,194,,194,,,,,,,
100032159,2012-07-05 10:00,1.0,,,,118,,118,,,,,,,
100032159,2012-07-05 11:00,1.0,,,,141,,141,,,,,,,
100032159,2012-07-05 12:00,1.0,,,,102,,102,,,,,,,
100032159,2012-07-05 13:00,1.0,,,,122,,122,,,,,,,
100032159,2012-07-05 14:00,1.0,,,,137,,137,,,,,,,
100032159,2012-07-05 15:00,1.0,,,,136,,136,,,,,,,
100032159,2012-07-05 16:00,1.0,,,,180,,180,,,,,,,
100032159,2012-07-05 17:00,1.0,,,,202,,202,,,,,,,
100032159,2012-07-05 18:00,1.0,,,,239,,239,,,,,,,
100032159,2012-07-05 19:00,1.0,,,,122,,122,,,,,,,
100032159,2012-07-05 20:00,1.0,,,,66,,66,,,,,,,
100032159,2012-07-05 21:00,1.0,,,,30,,30,,,,,,,
100032159,2012-07-05 22:00,1.0,,,,25,,25,,,,,,,
100032159,2012-07-05 23:00,1.0,,,,19,,19,,,,,,,
100032159,2012-07-06 00:00,1.0,,,,15,,15,,,,,,,
100032159,2012-07-06 01:00,1.0,,,,4,,4,,,,,,,
100032159,2012-07-06 02:00,1.0,,,,7,,7,,,,,,,
100032159,2012-07-06 03:00,1.0,,,,3,,3,,,,,,,
100032159,2012-07-06 04:00,1.0,,,,4,,4,,,,,,,
100032159,2012-07-06 05:00,1.0,,,,5,,5,,,,,,,
100032159,2012-07-06 06:00,1.0,,,,25,,25,,,,,,,
100032159,2012-07-06 07:00,1.0,,,,63,,63,,,,,,,
100032159,2012-07-06 08:00,1.0,,,,156,,156,,,,,,,
100032159,2012-07-06 09:00,1.0,,,,157,,157,,,,,,,
100032159,2012-07-06 10:00,1.0,,,,99,,99,,,,,,,
100032159,2012-07-06 11:00,1.0,,,,90,,90,,,,,,,
100032159,2012-07-06 12:00,1.0,,,,134,,134,,,,,,,
100032159,2012-07-06 13:00,1.0,,,,118,,118,,,,,,,
100032159,2012-07-06 14:00,1.0,,,,125,,125,,,,,,,
100032159,2012-07-06 15:00,1.0,,,,155,,155,,,,,,,
100032159,2012-07-06 16:00,1.0,,,,192,,192,,,,,,,
100032159,2012-07-06 17:00,1.0,,,,186,,186,,,,,,,
100032159,2012-07-06 18:00,1.0,,,,211,,211,,,,,,,
100032159,2012-07-06 19:00,1.0,,,,184,,184,,,,,,,
100032159,2012-07-06 20:00,1.0,,,,136,,136,,,,,,,
100032159,2012-07-06 21:00,1.0,,,,109,,109,,,,,,,
100032159,2012-07-06 22:00,1.0,,,,76,,76,,,,,,,
100032159,2012-07-06 23:00,1.0,,,,48,,48,,,,,,,
100032159,2012-07-07 00:00,1.0,,,,55,,55,,,,,,,
100032159,2012-07-07 01:00,1.0,,,,37,,37,,,,,,,
100032159,2012-07-07 02:00,1.0,,,,15,,15,,,,,,,
100032159,2012-07-07 03:00,1.0,,,,8,,8,,,,,,,
100032159,2012-07-07 04:00,1.0,,,,14,,14,,,,,,,
100032159,2012-07-07 05:00,1.0,,,,7,,7,,,,,,,
100032159,2012-07-07 06:00,1.0,,,,3,,3,,,,,,,
100032159,2012-07-07 07:00,1.0,,,,15,,15,,,,,,,
100032159,2012-07-07 08:00,1.0,,,,37,,37,,,,,,,
100032159,2012-07-07 09:00,1.0,,,,37,,37,,,,,,,
100032159,2012-07-07 10:00,1.0,,,,92,,92,,,,,,,
100032159,2012-07-07 11:00,1.0,,,,142,,142,,,,,,,
100032159,2012-07-07 12:00,1.0,,,,134,,134,,,,,,,
100032159,2012-07-07 13:00,1.0,,,,149,,149,,,,,,,
100032159,2012-07-07 14:00,1.0,,,,133,,133,,,,,,,
100032159,2012-07-07 15:00,1.0,,,,74,,74,,,,,,,
100032159,2012-07-07 16:00,1.0,,,,46,,46,,,,,,,
100032159,2012-07-07 17:00,1.0,,,,69,,69,,,,,,,
100032159,2012-07-07 18:00,1.0,,,,61,,61,,,,,,,
100032159,2012-07-07 19:00,1.0,,,,69,,69,,,,,,,
100032159,2012-07-07 20:00,1.0,,,,67,,67,,,,,,,
100032159,2012-07-07 21:00,1.0,,,,88,,88,,,,,,,
100032159,2012-07-07 22:00,1.0,,,,33,,33,,,,,,,
100032159,2012-07-07 23:00,1.0,,,,27,,27,,,,,,,
100032159,2012-07-08 00:00,1.0,,,,14,,14,,,,,,,
100032159,2012-07-08 01:00,1.0,,,,17,,17,,,,,,,
100032159,2012-07-08 02:00,1.0,,,,21,,21,,,,,,,
100032159,2012-07-08 03:00,1.0,,,,14,,14,,,,,,,
100032159,2012-07-08 04:00,1.0,,,,16,,16,,,,,,,
100032159,2012-07-08 05:00,1.0,,,,12,,12,,,,,,,
100032159,2012-07-08 06:00,1.0,,,,7,,7,,,,,,,
100032159,2012-07-08 07:00,1.0,,,,20,,20,,,,,,,
100032159,2012-07-08 08:00,1.0,,,,28,,28,,,,,,,
100032159,2012-07-08 09:00,1.0,,,,98,,98,,,,,,,
100032159,2012-07-08 10:00,1.0,,,,131,,131,,,,,,,
100032159,2012-07-08 11:00,1.0,,,,263,,263,,,,,,,
100032159,2012-07-08 12:00,1.0,,,,238,,238,,,,,,,
100032159,2012-07-08 13:00,1.0,,,,271,,271,,,,,,,
100032159,2012-07-08 14:00,1.0,,,,234,,234,,,,,,,
100032159,2012-07-08 15:00,1.0,,,,218,,218,,,,,,,
100032159,2012-07-08 16:00,1.0,,,,245,,245,,,,,,,
100032159,2012-07-08 17:00,1.0,,,,143,,143,,,,,,,
100032159,2012-07-08 18:00,1.0,,,,140,,140,,,,,,,
100032159,2012-07-08 19:00,1.0,,,,168,,168,,,,,,,
100032159,2012-07-08 20:00,1.0,,,,128,,128,,,,,,,
100032159,2012-07-08 21:00,1.0,,,,96,,96,,,,,,,
100032159,2012-07-08 22:00,1.0,,,,44,,44,,,,,,,
100032159,2012-07-08 23:00,1.0,,,,54,,54,,,,,,,
100032159,2012-07-09 00:00,1.0,,,,14,,14,,,,,,,
100032159,2012-07-09 01:00,1.0,,,,8,,8,,,,,,,
100032159,2012-07-09 02:00,1.0,,,,11,,11,,,,,,,
100032159,2012-07-09 03:00,1.0,,,,3,,3,,,,,,,
100032159,2012-07-09 04:00,1.0,,,,2,,2,,,,,,,
100032159,2012-07-09 05:00,1.0,,,,10,,10,,,,,,,
100032159,2012-07-09 06:00,1.0,,,,36,,36,,,,,,,
100032159,2012-07-09 07:00,1.0,,,,87,,87,,,,,,,
100032159,2012-07-09 08:00,1.0,,,,229,,229,,,,,,,
100032159,2012-07-09 09:00,1.0,,,,165,,165,,,,,,,
100032159,2012-07-09 10:00,1.0,,,,103,,103,,,,,,,
100032159,2012-07-09 11:00,1.0,,,,129,,129,,,,,,,
100032159,2012-07-09 12:00,1.0,,,,80,,80,,,,,,,
100032159,2012-07-09 13:00,1.0,,,,91,,91,,,,,,,
100032159,2012-07-09 14:00,1.0,,,,138,,138,,,,,,,
100032159,2012-07-09 15:00,1.0,,,,106,,106,,,,,,,
100032159,2012-07-09 16:00,1.0,,,,185,,185,,,,,,,
100032159,2012-07-09 17:00,1.0,,,,200,,200,,,,,,,
100032159,2012-07-09 18:00,1.0,,,,262,,262,,,,,,,
100032159,2012-07-09 19:00,1.0,,,,230,,230,,,,,,,
100032159,2012-07-09 20:00,1.0,,,,170,,170,,,,,,,
100032159,2012-07-09 21:00,1.0,,,,140,,140,,,,,,,
100032159,2012-07-09 22:00,1.0,,,,75,,75,,,,,,,
100032159,2012-07-09 23:00,1.0,,,,49,,49,,,,,,,
100032159,2012-07-10 00:00,1.0,,,,32,,32,,,,,,,
100032159,2012-07-10 01:00,1.0,,,,10,,10,,,,,,,
100032159,2012-07-10 02:00,1.0,,,,5,,5,,,,,,,
100032159,2012-07-10 03:00,1.0,,,,1,,1,,,,,,,
100032159,2012-07-10 04:00,1.0,,,,3,,3,,,,,,,
100032159,2012-07-10 05:00,1.0,,,,8,,8,,,,,,,
100032159,2012-07-10 06:00,1.0,,,,29,,29,,,,,,,
100032159,2012-07-10 07:00,1.0,,,,85,,85,,,,,,,
100032159,2012-07-10 08:00,1.0,,,,209,,209,,,,,,,
100032159,2012-07-10 09:00,1.0,,,,169,,169,,,,,,,
100032159,2012-07-10 10:00,1.0,,,,108,,108,,,,,,,
100032159,2012-07-10 11:00,1.0,,,,130,,130,,,,,,,
100032159,2012-07-10 12:00,1.0,,,,95,,95,,,,,,,
100032159,2012-07-10 13:00,1.0,,,,104,,104,,,,,,,
100032159,2012-07-10 14:00,1.0,,,,123,,123,,,,,,,
100032159,2012-07-10 15:00,1.0,,,,161,,161,,,,,,,
100032159,2012-07-10 16:00,1.0,,,,188,,188,,,,,,,
100032159,2012-07-10 17:00,1.0,,,,230,,230,,,,,,,
100032159,2012-07-10 18:00,1.0,,,,286,,286,,,,,,,
100032159,2012-07-10 19:00,1.0,,,,211,,211,,,,,,,
100032159,2012-07-10 20:00,1.0,,,,167,,167,,,,,,,
100032159,2012-07-10 21:00,1.0,,,,146,,146,,,,,,,
100032159,2012-07-10 22:00,1.0,,,,107,,107,,,,,,,
100032159,2012-07-10 23:00,1.0,,,,47,,47,,,,,,,
100032159,2012-07-11 00:00,1.0,,,,29,,29,,,,,,,
100032159,2012-07-11 01:00,1.0,,,,22,,22,,,,,,,
100032159,2012-07-11 02:00,1.0,,,,11,,11,,,,,,,
100032159,2012-07-11 03:00,1.0,,,,2,,2,,,,,,,
100032159,2012-07-11 04:00,1.0,,,,6,,6,,,,,,,
100032159,2012-07-11 05:00,1.0,,,,9,,9,,,,,,,
100032159,2012-07-11 06:00,1.0,,,,29,,29,,,,,,,
100032159,2012-07-11 07:00,1.0,,,,94,,94,,,,,,,
100032159,2012-07-11 08:00,1.0,,,,197,,197,,,,,,,
100032159,2012-07-11 09:00,1.0,,,,129,,129,,,,,,,
100032159,2012-07-11 10:00,1.0,,,,86,,86,,,,,,,
100032159,2012-07-11 11:00,1.0,,,,139,,139,,,,,,,
100032159,2012-07-11 12:00,1.0,,,,80,,80,,,,,,,
100032159,2012-07-11 13:00,1.0,,,,107,,107,,,,,,,
100032159,2012-07-11 14:00,1.0,,,,94,,94,,,,,,,
100032159,2012-07-11 15:00,1.0,,,,120,,120,,,,,,,
100032159,2012-07-11 16:00,1.0,,,,176,,176,,,,,,,
100032159,2012-07-11 17:00,1.0,,,,167,,167,,,,,,,
100032159,2012-07-11 18:00,1.0,,,,199,,199,,,,,,,
100032159,2012-07-11 19:00,1.0,,,,188,,188,,,,,,,
100032159,2012-07-11 20:00,1.0,,,,115,,115,,,,,,,
100032159,2012-07-11 21:00,1.0,,,,85,,85,,,,,,,
100032159,2012-07-11 22:00,1.0,,,,83,,83,,,,,,,
100032159,2012-07-11 23:00,1.0,,,,47,,47,,,,,,,
100032159,2012-07-12 00:00,1.0,,,,27,,27,,,,,,,
100032159,2012-07-12 01:00,1.0,,,,5,,5,,,,,,,
100032159,2012-07-12 02:00,1.0,,,,12,,12,,,,,,,
100032159,2012-07-12 03:00,1.0,,,,3,,3,,,,,,,
100032159,2012-07-12 04:00,1.0,,,,2,,2,,,,,,,
100032159,2012-07-12 05:00,1.0,,,,6,,6,,,,,,,
100032159,2012-07-12 06:00,1.0,,,,35,,35,,,,,,,
100032159,2012-07-12 07:00,1.0,,,,68,,68,,,,,,,
100032159,2012-07-12 08:00,1.0,,,,208,,208,,,,,,,
100032159,2012-07-12 09:00,1.0,,,,146,,146,,,,,,,
100032159,2012-07-12 10:00,1.0,,,,82,,82,,,,,,,
100032159,2012-07-12 11:00,1.0,,,,57,,57,,,,,,,
100032159,2012-07-12 12:00,1.0,,,,67,,67,,,,,,,
100032159,2012-07-12 13:00,1.0,,,,74,,74,,,,,,,
100032159,2012-07-12 14:00,1.0,,,,74,,74,,,,,,,
100032159,2012-07-12 15:00,1.0,,,,67,,67,,,,,,,
100032159,2012-07-12 16:00,1.0,,,,87,,87,,,,,,,
100032159,2012-07-12 17:00,1.0,,,,132,,132,,,,,,,
100032159,2012-07-12 18:00,1.0,,,,159,,159,,,,,,,
100032159,2012-07-12 19:00,1.0,,,,142,,142,,,,,,,
100032159,2012-07-12 20:00,1.0,,,,120,,120,,,,,,,
100032159,2012-07-12 21:00,1.0,,,,80,,80,,,,,,,
100032159,2012-07-12 22:00,1.0,,,,59,,59,,,,,,,
100032159,2012-07-12 23:00,1.0,,,,44,,44,,,,,,,
100032159,2012-07-13 00:00,1.0,,,,21,,21,,,,,,,
100032159,2012-07-13 01:00,1.0,,,,11,,11,,,,,,,
100032159,2012-07-13 02:00,1.0,,,,8,,8,,,,,,,
100032159,2012-07-13 03:00,1.0,,,,6,,6,,,,,,,
100032159,2012-07-13 04:00,1.0,,,,5,,5,,,,,,,
100032159,2012-07-13 05:00,1.0,,,,7,,7,,,,,,,
100032159,2012-07-13 06:00,1.0,,,,22,,22,,,,,,,
100032159,2012-07-13 07:00,1.0,,,,79,,79,,,,,,,
100032159,2012-07-13 08:00,1.0,,,,162,,162,,,,,,,
100032159,2012-07-13 09:00,1.0,,,,156,,156,,,,,,,
100032159,2012-07-13 10:00,1.0,,,,91,,91,,,,,,,
100032159,2012-07-13 11:00,1.0,,,,74,,74,,,,,,,
100032159,2012-07-13 12:00,1.0,,,,78,,78,,,,,,,
100032159,2012-07-13 13:00,1.0,,,,75,,75,,,,,,,
100032159,2012-07-13 14:00,1.0,,,,55,,55,,,,,,,
100032159,2012-07-13 15:00,1.0,,,,90,,90,,,,,,,
100032159,2012-07-13 16:00,1.0,,,,90,,90,,,,,,,
100032159,2012-07-13 17:00,1.0,,,,73,,73,,,,,,,
100032159,2012-07-13 18:00,1.0,,,,119,,119,,,,,,,
100032159,2012-07-13 19:00,1.0,,,,98,,98,,,,,,,
100032159,2012-07-13 20:00,1.0,,,,54,,54,,,,,,,
100032159,2012-07-13 21:00,1.0,,,,35,,35,,,,,,,
100032159,2012-07-13 22:00,1.0,,,,26,,26,,,,,,,
100032159,2012-07-13 23:00,1.0,,,,22,,22,,,,,,,
100032159,2012-07-14 00:00,1.0,,,,25,,25,,,,,,,
100032159,2012-07-14 01:00,1.0,,,,8,,8,,,,,,,
100032159,2012-07-14 02:00,1.0,,,,9,,9,,,,,,,
100032159,2012-07-14 03:00,1.0,,,,16,,16,,,,,,,
100032159,2012-07-14 04:00,1.0,,,,3,,3,,,,,,,
100032159,2012-07-14 05:00,1.0,,,,5,,5,,,,,,,
100032159,2012-07-14 06:00,1.0,,,,6,,6,,,,,,,
100032159,2012-07-14 07:00,1.0,,,,13,,13,,,,,,,
100032159,2012-07-14 08:00,1.0,,,,14,,14,,,,,,,
100032159,2012-07-14 09:00,1.0,,,,17,,17,,,,,,,
100032159,2012-07-14 10:00,1.0,,,,39,,39,,,,,,,
100032159,2012-07-14 11:00,1.0,,,,31,,31,,,,,,,
100032159,2012-07-14 12:00,1.0,,,,28,,28,,,,,,,
100032159,2012-07-14 13:00,1.0,,,,59,,59,,,,,,,
100032159,2012-07-14 14:00,1.0,,,,82,,82,,,,,,,
100032159,2012-07-14 15:00,1.0,,,,105,,105,,,,,,,
100032159,2012-07-14 16:00,1.0,,,,120,,120,,,,,,,
100032159,2012-07-14 17:00,1.0,,,,95,,95,,,,,,,
100032159,2012-07-14 18:00,1.0,,,,63,,63,,,,,,,
100032159,2012-07-14 19:00,1.0,,,,58,,58,,,,,,,
100032159,2012-07-14 20:00,1.0,,,,63,,63,,,,,,,
100032159,2012-07-14 21:00,1.0,,,,47,,47,,,,,,,
100032159,2012-07-14 22:00,1.0,,,,24,,24,,,,,,,
100032159,2012-07-14 23:00,1.0,,,,19,,19,,,,,,,
100032159,2012-07-15 00:00,1.0,,,,16,,16,,,,,,,
100032159,2012-07-15 01:00,1.0,,,,10,,10,,,,,,,
100032159,2012-07-15 02:00,1.0,,,,16,,16,,,,,,,
100032159,2012-07-15 03:00,1.0,,,,9,,9,,,,,,,
100032159,2012-07-15 04:00,1.0,,,,10,,10,,,,,,,
100032159,2012-07-15 05:00,1.0,,,,7,,7,,,,,,,
100032159,2012-07-15 06:00,1.0,,,,17,,17,,,,,,,
100032159,2012-07-15 07:00,1.0,,,,11,,11,,,,,,,
100032159,2012-07-15 08:00,1.0,,,,23,,23,,,,,,,
100032159,2012-07-15 09:00,1.0,,,,45,,45,,,,,,,
100032159,2012-07-15 10:00,1.0,,,,60,,60,,,,,,,
100032159,2012-07-15 11:00,1.0,,,,64,,64,,,,,,,
100032159,2012-07-15 12:00,1.0,,,,69,,69,,,,,,,
100032159,2012-07-15 13:00,1.0,,,,137,,137,,,,,,,
100032159,2012-07-15 14:00,1.0,,,,156,,156,,,,,,,
100032159,2012-07-15 15:00,1.0,,,,201,,201,,,,,,,
100032159,2012-07-15 16:00,1.0,,,,150,,150,,,,,,,
100032159,2012-07-15 17:00,1.0,,,,190,,190,,,,,,,
100032159,2012-07-15 18:00,1.0,,,,142,,142,,,,,,,
100032159,2012-07-15 19:00,1.0,,,,144,,144,,,,,,,
100032159,2012-07-15 20:00,1.0,,,,104,,104,,,,,,,
100032159,2012-07-15 21:00,1.0,,,,78,,78,,,,,,,
100032159,2012-07-15 22:00,1.0,,,,44,,44,,,,,,,
100032159,2012-07-15 23:00,1.0,,,,25,,25,,,,,,,
100032159,2012-07-16 00:00,1.0,,,,17,,17,,,,,,,
100032159,2012-07-16 01:00,1.0,,,,9,,9,,,,,,,
100032159,2012-07-16 02:00,1.0,,,,3,,3,,,,,,,
100032159,2012-07-16 03:00,1.0,,,,2,,2,,,,,,,
100032159,2012-07-16 04:00,1.0,,,,4,,4,,,,,,,
100032159,2012-07-16 05:00,1.0,,,,6,,6,,,,,,,
100032159,2012-07-16 06:00,1.0,,,,22,,22,,,,,,,
100032159,2012-07-16 07:00,1.0,,,,77,,77,,,,,,,
100032159,2012-07-16 08:00,1.0,,,,169,,169,,,,,,,
100032159,2012-07-16 09:00,1.0,,,,127,,127,,,,,,,
100032159,2012-07-16 10:00,1.0,,,,81,,81,,,,,,,
100032159,2012-07-16 11:00,1.0,,,,106,,106,,,,,,,
100032159,2012-07-16 12:00,1.0,,,,88,,88,,,,,,,
100032159,2012-07-16 13:00,1.0,,,,114,,114,,,,,,,
100032159,2012-07-16 14:00,1.0,,,,99,,99,,,,,,,
100032159,2012-07-16 15:00,1.0,,,,100,,100,,,,,,,
100032159,2012-07-16 16:00,1.0,,,,160,,160,,,,,,,
100032159,2012-07-16 17:00,1.0,,,,125,,125,,,,,,,
100032159,2012-07-16 18:00,1.0,,,,205,,205,,,,,,,
100032159,2012-07-16 19:00,1.0,,,,193,,193,,,,,,,
100032159,2012-07-16 20:00,1.0,,,,71,,71,,,,,,,
100032159,2012-07-16 21:00,1.0,,,,59,,59,,,,,,,
100032159,2012-07-16 22:00,1.0,,,,38,,38,,,,,,,
100032159,2012-07-16 23:00,1.0,,,,29,,29,,,,,,,
100032159,2012-07-17 00:00,1.0,,,,19,,19,,,,,,,
100032159,2012-07-17 01:00,1.0,,,,8,,8,,,,,,,
100032159,2012-07-17 02:00,1.0,,,,4,,4,,,,,,,
100032159,2012-07-17 03:00,1.0,,,,1,,1,,,,,,,
100032159,2012-07-17 04:00,1.0,,,,3,,3,,,,,,,
100032159,2012-07-17 05:00,1.0,,,,5,,5,,,,,,,
100032159,2012-07-17 06:00,1.0,,,,27,,27,,,,,,,
100032159,2012-07-17 07:00,1.0,,,,55,,55,,,,,,,
100032159,2012-07-17 08:00,1.0,,,,132,,132,,,,,,,
100032159,2012-07-17 09:00,1.0,,,,138,,138,,,,,,,
100032159,2012-07-17 10:00,1.0,,,,80,,80,,,,,,,
100032159,2012-07-17 11:00,1.0,,,,54,,54,,,,,,,
100032159,2012-07-17 12:00,1.0,,,,61,,61,,,,,,,
100032159,2012-07-17 13:00,1.0,,,,74,,74,,,,,,,
100032159,2012-07-17 14:00,1.0,,,,100,,100,,,,,,,
100032159,2012-07-17 15:00,1.0,,,,87,,87,,,,,,,
100032159,2012-07-17 16:00,1.0,,,,143,,143,,,,,,,
100032159,2012-07-17 17:00,1.0,,,,136,,136,,,,,,,
100032159,2012-07-17 18:00,1.0,,,,153,,153,,,,,,,
100032159,2012-07-17 19:00,1.0,,,,145,,145,,,,,,,
100032159,2012-07-17 20:00,1.0,,,,117,,117,,,,,,,
100032159,2012-07-17 21:00,1.0,,,,85,,85,,,,,,,
100032159,2012-07-17 22:00,1.0,,,,58,,58,,,,,,,
100032159,2012-07-17 23:00,1.0,,,,42,,42,,,,,,,
100032159,2012-07-18 00:00,1.0,,,,22,,22,,,,,,,
100032159,2012-07-18 01:00,1.0,,,,9,,9,,,,,,,
100032159,2012-07-18 02:00,1.0,,,,5,,5,,,,,,,
100032159,2012-07-18 03:00,1.0,,,,4,,4,,,,,,,
100032159,2012-07-18 04:00,1.0,,,,4,,4,,,,,,,
100032159,2012-07-18 05:00,1.0,,,,7,,7,,,,,,,
100032159,2012-07-18 06:00,1.0,,,,19,,19,,,,,,,
100032159,2012-07-18 07:00,1.0,,,,61,,61,,,,,,,
100032159,2012-07-18 08:00,1.0,,,,117,,117,,,,,,,
100032159,2012-07-18 09:00,1.0,,,,102,,102,,,,,,,
100032159,2012-07-18 10:00,1.0,,,,71,,71,,,,,,,
100032159,2012-07-18 11:00,1.0,,,,51,,51,,,,,,,
100032159,2012-07-18 12:00,1.0,,,,49,,49,,,,,,,
100032159,2012-07-18 13:00,1.0,,,,54,,54,,,,,,,
100032159,2012-07-18 14:00,1.0,,,,45,,45,,,,,,,
100032159,2012-07-18 15:00,1.0,,,,64,,64,,,,,,,
100032159,2012-07-18 16:00,1.0,,,,83,,83,,,,,,,
100032159,2012-07-18 17:00,1.0,,,,123,,123,,,,,,,
100032159,2012-07-18 18:00,1.0,,,,138,,138,,,,,,,
100032159,2012-07-18 19:00,1.0,,,,128,,128,,,,,,,
100032159,2012-07-18 20:00,1.0,,,,112,,112,,,,,,,
100032159,2012-07-18 21:00,1.0,,,,72,,72,,,,,,,
100032159,2012-07-18 22:00,1.0,,,,44,,44,,,,,,,
100032159,2012-07-18 23:00,1.0,,,,23,,23,,,,,,,
100032159,2012-07-19 00:00,1.0,,,,16,,16,,,,,,,
100032159,2012-07-19 01:00,1.0,,,,8,,8,,,,,,,
100032159,2012-07-19 02:00,1.0,,,,5,,5,,,,,,,
100032159,2012-07-19 03:00,1.0,,,,3,,3,,,,,,,
100032159,2012-07-19 04:00,1.0,,,,5,,5,,,,,,,
100032159,2012-07-19 05:00,1.0,,,,3,,3,,,,,,,
100032159,2012-07-19 06:00,1.0,,,,21,,21,,,,,,,
100032159,2012-07-19 07:00,1.0,,,,66,,66,,,,,,,
100032159,2012-07-19 08:00,1.0,,,,146,,146,,,,,,,
100032159,2012-07-19 09:00,1.0,,,,133,,133,,,,,,,
100032159,2012-07-19 10:00,1.0,,,,98,,98,,,,,,,
100032159,2012-07-19 11:00,1.0,,,,88,,88,,,,,,,
100032159,2012-07-19 12:00,1.0,,,,74,,74,,,,,,,
100032159,2012-07-19 13:00,1.0,,,,68,,68,,,,,,,
100032159,2012-07-19 14:00,1.0,,,,90,,90,,,,,,,
100032159,2012-07-19 15:00,1.0,,,,111,,111,,,,,,,
100032159,2012-07-19 16:00,1.0,,,,134,,134,,,,,,,
100032159,2012-07-19 17:00,1.0,,,,128,,128,,,,,,,
100032159,2012-07-19 18:00,1.0,,,,172,,172,,,,,,,
100032159,2012-07-19 19:00,1.0,,,,131,,131,,,,,,,
100032159,2012-07-19 20:00,1.0,,,,97,,97,,,,,,,
100032159,2012-07-19 21:00,1.0,,,,67,,67,,,,,,,
100032159,2012-07-19 22:00,1.0,,,,41,,41,,,,,,,
100032159,2012-07-19 23:00,1.0,,,,25,,25,,,,,,,
100032159,2012-07-20 00:00,1.0,,,,25,,25,,,,,,,
100032159,2012-07-20 01:00,1.0,,,,15,,15,,,,,,,
100032159,2012-07-20 02:00,1.0,,,,6,,6,,,,,,,
100032159,2012-07-20 03:00,1.0,,,,3,,3,,,,,,,
100032159,2012-07-20 04:00,1.0,,,,8,,8,,,,,,,
100032159,2012-07-20 05:00,1.0,,,,8,,8,,,,,,,
100032159,2012-07-20 06:00,1.0,,,,25,,25,,,,,,,
100032159,2012-07-20 07:00,1.0,,,,82,,82,,,,,,,
100032159,2012-07-20 08:00,1.0,,,,158,,158,,,,,,,
100032159,2012-07-20 09:00,1.0,,,,125,,125,,,,,,,
100032159,2012-07-20 10:00,1.0,,,,122,,122,,,,,,,
100032159,2012-07-20 11:00,1.0,,,,114,,114,,,,,,,
100032159,2012-07-20 12:00,1.0,,,,86,,86,,,,,,,
100032159,2012-07-20 13:00,1.0,,,,110,,110,,,,,,,
100032159,2012-07-20 14:00,1.0,,,,126,,126,,,,,,,
100032159,2012-07-20 15:00,1.0,,,,155,,155,,,,,,,
100032159,2012-07-20 16:00,1.0,,,,157,,157,,,,,,,
100032159,2012-07-20 17:00,1.0,,,,160,,160,,,,,,,
100032159,2012-07-20 18:00,1.0,,,,160,,160,,,,,,,
100032159,2012-07-20 19:00,1.0,,,,135,,135,,,,,,,
100032159,2012-07-20 20:00,1.0,,,,94,,94,,,,,,,
100032159,2012-07-20 21:00,1.0,,,,79,,79,,,,,,,
100032159,2012-07-20 22:00,1.0,,,,45,,45,,,,,,,
100032159,2012-07-20 23:00,1.0,,,,36,,36,,,,,,,